HS3MXC-2 Weather Reports


time (UTC)temp
C
wind
direction
speed
KPH
gust
KPH
rain 1hr
cm
rain 24hr
cm
rain mn
cm
humidity
%
barometer
mb
20260508105734 30 0.0 0.0 0.00 0.00 0.00 62 993.7
20260508104722 30 0.0 0.0 0.00 0.00 0.00 62 993.5
20260508104212 30 0.0 0.0 0.00 0.00 0.00 62 993.4
20260508103658 30 0.0 0.0 0.00 0.00 0.00 62 993.4
20260508103150 30 0.0 0.0 0.00 0.00 0.00 61 993.3
20260508102643 30 0.0 0.0 0.00 0.00 0.00 61 993.1
20260508102136 30 0.0 0.0 0.00 0.00 0.00 61 993.1
20260508101624 30 0.0 0.0 0.00 0.00 0.00 60 993.0
20260508101116 30 0.0 0.0 0.00 0.00 0.00 62 993.0
20260508100606 30 0.0 0.0 0.00 0.00 0.00 62 992.9
20260508100059 30 0.0 0.0 0.00 0.00 0.00 62 992.9
20260508095553 30 0.0 0.0 0.00 0.00 0.00 63 992.9
20260508095046 30 0.0 0.0 0.00 0.00 0.00 64 993.0
20260508094538 30 0.0 0.0 0.00 0.00 0.00 65 993.0
20260508094032 30 0.0 0.0 0.00 0.00 0.00 65 992.9
20260508093525 30 0.0 0.0 0.00 0.00 0.00 64 992.7
20260508093018 27 0.0 0.0 0.00 0.00 0.00 44 992.7
20260508092509 24 0.0 0.0 0.00 0.00 0.00 36 992.5
20260508091959 25 0.0 0.0 0.00 0.00 0.00 37 992.4
20260508090944 24 0.0 0.0 0.00 0.00 0.00 37 992.5
20260508090436 24 0.0 0.0 0.00 0.00 0.00 36 992.6
20260508085928 24 0.0 0.0 0.00 0.00 0.00 36 992.6
20260508085421 24 0.0 0.0 0.00 0.00 0.00 36 992.6
20260508084914 24 0.0 0.0 0.00 0.00 0.00 36 992.7
20260508084407 24 0.0 0.0 0.00 0.00 0.00 36 992.8
20260508083900 25 0.0 0.0 0.00 0.00 0.00 36 992.9
20260508083353 25 0.0 0.0 0.00 0.00 0.00 36 993.1
20260508082845 25 0.0 0.0 0.00 0.00 0.00 36 993.1
20260508082338 25 0.0 0.0 0.00 0.00 0.00 36 993.2
20260508081831 25 0.0 0.0 0.00 0.00 0.00 36 993.3
20260508081321 25 0.0 0.0 0.00 0.00 0.00 36 993.4
20260508080814 25 0.0 0.0 0.00 0.00 0.00 36 993.4
20260508080307 25 0.0 0.0 0.00 0.00 0.00 36 993.5
20260508075759 25 0.0 0.0 0.00 0.00 0.00 36 993.6
20260508074745 25 0.0 0.0 0.00 0.00 0.00 37 993.7
20260508074236 25 0.0 0.0 0.00 0.00 0.00 37 993.8
20260508073726 25 0.0 0.0 0.00 0.00 0.00 37 993.8
20260508073215 25 0.0 0.0 0.00 0.00 0.00 38 994.0
20260508072705 25 0.0 0.0 0.00 0.00 0.00 38 994.1
20260508072159 25 0.0 0.0 0.00 0.00 0.00 39 994.2
20260508071652 25 0.0 0.0 0.00 0.00 0.00 38 994.2
20260508071142 25 0.0 0.0 0.00 0.00 0.00 38 994.3
20260508070634 25 0.0 0.0 0.00 0.00 0.00 39 994.3
20260508070127 25 0.0 0.0 0.00 0.00 0.00 38 994.3
20260508065618 25 0.0 0.0 0.00 0.00 0.00 39 994.3
20260508065111 25 0.0 0.0 0.00 0.00 0.00 40 994.5
20260508064056 25 0.0 0.0 0.00 0.00 0.00 40 994.6
20260508063548 25 0.0 0.0 0.00 0.00 0.00 39 994.7
20260508063041 25 0.0 0.0 0.00 0.00 0.00 39 994.8
20260508062534 25 0.0 0.0 0.00 0.00 0.00 39 994.9
20260508061519 24 0.0 0.0 0.00 0.00 0.00 38 995.1
20260508061012 24 0.0 0.0 0.00 0.00 0.00 38 995.3
20260508060504 24 0.0 0.0 0.00 0.00 0.00 39 995.4
20260508055956 24 0.0 0.0 0.00 0.00 0.00 39 995.6
20260508054943 24 0.0 0.0 0.00 0.00 0.00 41 995.9
20260508053928 25 0.0 0.0 0.00 0.00 0.00 43 996.1
20260508053422 25 0.0 0.0 0.00 0.00 0.00 40 996.2
20260508052911 24 0.0 0.0 0.00 0.00 0.00 39 996.4
20260508052402 24 0.0 0.0 0.00 0.00 0.00 39 996.4
20260508051855 23 0.0 0.0 0.00 0.00 0.00 39 996.4
20260508051349 24 0.0 0.0 0.00 0.00 0.00 40 996.4
20260508050842 25 0.0 0.0 0.00 0.00 0.00 40 996.4
20260508045317 24 0.0 0.0 0.00 0.00 0.00 40 996.6
20260508044811 25 0.0 0.0 0.00 0.00 0.00 42 996.7
20260508044301 25 0.0 0.0 0.00 0.00 0.00 43 996.9
20260508043754 25 0.0 0.0 0.00 0.00 0.00 42 997.0
20260508043246 25 0.0 0.0 0.00 0.00 0.00 40 997.1
20260508042739 24 0.0 0.0 0.00 0.00 0.00 41 997.2
20260508042232 25 0.0 0.0 0.00 0.00 0.00 42 997.2
20260508041722 25 0.0 0.0 0.00 0.00 0.00 43 997.3
20260508041215 25 0.0 0.0 0.00 0.00 0.00 42 997.3
20260508040708 25 0.0 0.0 0.00 0.00 0.00 42 997.4
20260508040200 25 0.0 0.0 0.00 0.00 0.00 42 997.6
20260508035652 25 0.0 0.0 0.00 0.00 0.00 40 997.6
20260508035142 25 0.0 0.0 0.00 0.00 0.00 41 997.7
20260508034635 25 0.0 0.0 0.00 0.00 0.00 42 997.8
20260508034127 25 0.0 0.0 0.00 0.00 0.00 43 997.9
20260508033618 25 0.0 0.0 0.00 0.00 0.00 42 998.0
20260508033111 25 0.0 0.0 0.00 0.00 0.00 41 998.0
20260508032605 25 0.0 0.0 0.00 0.00 0.00 42 998.1
20260508032057 25 0.0 0.0 0.00 0.00 0.00 42 998.2
20260508031551 25 0.0 0.0 0.00 0.00 0.00 43 998.2
20260508031043 25 0.0 0.0 0.00 0.00 0.00 42 998.2
20260508030536 25 0.0 0.0 0.00 0.00 0.00 42 998.1
20260508030029 25 0.0 0.0 0.00 0.00 0.00 42 998.1
20260508025523 25 0.0 0.0 0.00 0.00 0.00 43 998.0
20260508024510 26 0.0 0.0 0.00 0.00 0.00 46 997.9
20260508023453 25 0.0 0.0 0.00 0.00 0.00 43 997.7
20260508022947 26 0.0 0.0 0.00 0.00 0.00 44 997.7
20260508022440 26 0.0 0.0 0.00 0.00 0.00 46 997.7
20260508021932 26 0.0 0.0 0.00 0.00 0.00 47 997.7
20260508021425 26 0.0 0.0 0.00 0.00 0.00 49 997.9
20260508020918 27 0.0 0.0 0.00 0.00 0.00 52 998.1
20260508020411 27 0.0 0.0 0.00 0.00 0.00 54 998.2
20260508015904 27 0.0 0.0 0.00 0.00 0.00 56 998.1
20260508014849 28 0.0 0.0 0.00 0.00 0.00 61 997.6
20260508014342 28 0.0 0.0 0.00 0.00 0.00 65 997.5
20260508013836 29 0.0 0.0 0.00 0.00 0.00 67 997.3
20260508013329 29 0.0 0.0 0.00 0.00 0.00 67 997.2
20260508012822 29 0.0 0.0 0.00 0.00 0.00 67 997.2
20260508012312 29 0.0 0.0 0.00 0.00 0.00 68 997.3
20260508011806 29 0.0 0.0 0.00 0.00 0.00 68 997.5
20260508011259 29 0.0 0.0 0.00 0.00 0.00 68 997.4
20260508010746 29 0.0 0.0 0.00 0.00 0.00 68 997.3
20260508010237 29 0.0 0.0 0.00 0.00 0.00 68 997.4
20260508005730 29 0.0 0.0 0.00 0.00 0.00 68 997.5
20260508005224 29 0.0 0.0 0.00 0.00 0.00 68 997.5
20260508004717 29 0.0 0.0 0.00 0.00 0.00 68 997.6
20260508004210 29 0.0 0.0 0.00 0.00 0.00 68 997.5
20260508003703 29 0.0 0.0 0.00 0.00 0.00 68 997.5
20260508003157 29 0.0 0.0 0.00 0.00 0.00 68 997.4
20260508002651 29 0.0 0.0 0.00 0.00 0.00 68 997.4
20260508002143 29 0.0 0.0 0.00 0.00 0.00 68 997.3
20260508001635 29 0.0 0.0 0.00 0.00 0.00 68 997.3
20260508001127 29 0.0 0.0 0.00 0.00 0.00 67 997.2
20260508000621 29 0.0 0.0 0.00 0.00 0.00 67 996.7
20260508000113 29 0.0 0.0 0.00 0.00 0.00 67 996.5
20260507235605 29 0.0 0.0 0.00 0.00 0.00 68 996.4
20260507234551 29 0.0 0.0 0.00 0.00 0.00 67 996.0
20260507234043 29 0.0 0.0 0.00 0.00 0.00 68 995.9
20260507233533 29 0.0 0.0 0.00 0.00 0.00 68 995.9
20260507233027 29 0.0 0.0 0.00 0.00 0.00 68 995.8
20260507232010 29 0.0 0.0 0.00 0.00 0.00 68 995.8
20260507231503 29 0.0 0.0 0.00 0.00 0.00 69 995.7
20260507230956 29 0.0 0.0 0.00 0.00 0.00 68 995.6
20260507230449 29 0.0 0.0 0.00 0.00 0.00 66 995.5
20260507225943 29 0.0 0.0 0.00 0.00 0.00 66 995.4
20260507225430 29 0.0 0.0 0.00 0.00 0.00 66 995.2
20260507224924 29 0.0 0.0 0.00 0.00 0.00 66 995.1
20260507223907 29 0.0 0.0 0.00 0.00 0.00 66 994.9
20260507223401 29 0.0 0.0 0.00 0.00 0.00 66 994.9
20260507222854 29 0.0 0.0 0.00 0.00 0.00 67 994.9
20260507222348 29 0.0 0.0 0.00 0.00 0.00 66 994.9
20260507221841 29 0.0 0.0 0.00 0.00 0.00 66 994.9
20260507220825 29 0.0 0.0 0.00 0.00 0.00 66 995.0
20260507220318 30 0.0 0.0 0.00 0.00 0.00 66 994.9
20260507215812 30 0.0 0.0 0.00 0.00 0.00 66 994.8
20260507215306 30 0.0 0.0 0.00 0.00 0.00 66 994.7
20260507214756 30 0.0 0.0 0.00 0.00 0.00 65 994.8
20260507214244 30 0.0 0.0 0.00 0.00 0.00 65 994.7
20260507213230 30 0.0 0.0 0.00 0.00 0.00 65 994.6
20260507212723 30 0.0 0.0 0.00 0.00 0.00 66 994.6
20260507212215 30 0.0 0.0 0.00 0.00 0.00 66 994.5
20260507211706 30 0.0 0.0 0.00 0.00 0.00 66 994.4
20260507211200 30 0.0 0.0 0.00 0.00 0.00 66 994.4
20260507210652 30 0.0 0.0 0.00 0.00 0.00 66 994.3
20260507210145 30 0.0 0.0 0.00 0.00 0.00 66 994.3
20260507205130 30 0.0 0.0 0.00 0.00 0.00 66 994.3
20260507204618 30 0.0 0.0 0.00 0.00 0.00 66 994.4
20260507204111 30 0.0 0.0 0.00 0.00 0.00 66 994.4
20260507203605 30 0.0 0.0 0.00 0.00 0.00 67 994.6
20260507203058 30 0.0 0.0 0.00 0.00 0.00 66 994.7
20260507202550 30 0.0 0.0 0.00 0.00 0.00 67 994.7
20260507202044 30 0.0 0.0 0.00 0.00 0.00 67 994.7
20260507201537 30 0.0 0.0 0.00 0.00 0.00 67 994.6
20260507201020 30 0.0 0.0 0.00 0.00 0.00 67 994.7
20260507200511 30 0.0 0.0 0.00 0.00 0.00 67 994.7
20260507200002 30 0.0 0.0 0.00 0.00 0.00 67 994.8
20260507195454 30 0.0 0.0 0.00 0.00 0.00 66 994.8
20260507194947 30 0.0 0.0 0.00 0.00 0.00 66 994.7
20260507194439 30 0.0 0.0 0.00 0.00 0.00 66 994.6
20260507193931 30 0.0 0.0 0.00 0.00 0.00 66 994.6
20260507193425 30 0.0 0.0 0.00 0.00 0.00 66 994.7
20260507192915 30 0.0 0.0 0.00 0.00 0.00 66 994.7
20260507192408 30 0.0 0.0 0.00 0.00 0.00 66 994.6
20260507191859 30 0.0 0.0 0.00 0.00 0.00 66 994.6
20260507191350 30 0.0 0.0 0.00 0.00 0.00 66 994.5
20260507190841 30 0.0 0.0 0.00 0.00 0.00 66 994.5
20260507190334 30 0.0 0.0 0.00 0.00 0.00 66 994.5
20260507185828 30 0.0 0.0 0.00 0.00 0.00 66 994.5
20260507185322 30 0.0 0.0 0.00 0.00 0.00 66 994.6
20260507184810 30 0.0 0.0 0.00 0.00 0.00 66 994.7
20260507184300 30 0.0 0.0 0.00 0.00 0.00 67 994.6
20260507183753 30 0.0 0.0 0.00 0.00 0.00 66 994.7
20260507183239 30 0.0 0.0 0.00 0.00 0.00 66 994.6
20260507182732 30 0.0 0.0 0.00 0.00 0.00 66 994.6
20260507182225 30 0.0 0.0 0.00 0.00 0.00 66 994.6
20260507181717 30 0.0 0.0 0.00 0.00 0.00 65 994.6
20260507181206 30 0.0 0.0 0.00 0.00 0.00 65 994.6
20260507180658 30 0.0 0.0 0.00 0.00 0.00 66 994.6
20260507180145 30 0.0 0.0 0.00 0.00 0.00 65 994.7
20260507175638 30 0.0 0.0 0.00 0.00 0.00 65 994.7
20260507175131 30 0.0 0.0 0.00 0.00 0.00 66 994.7
20260507174624 30 0.0 0.0 0.00 0.00 0.00 66 994.8
20260507174115 30 0.0 0.0 0.00 0.00 0.00 66 994.8
20260507173606 30 0.0 0.0 0.00 0.00 0.00 66 994.7
20260507173100 30 0.0 0.0 0.00 0.00 0.00 66 994.8
20260507172553 30 0.0 0.0 0.00 0.00 0.00 65 994.8
20260507172047 30 0.0 0.0 0.00 0.00 0.00 65 994.7
20260507171540 30 0.0 0.0 0.00 0.00 0.00 65 994.5
20260507170519 30 0.0 0.0 0.00 0.00 0.00 65 994.2
20260507170009 30 0.0 0.0 0.00 0.00 0.00 66 994.2
20260507165501 30 0.0 0.0 0.00 0.00 0.00 65 994.2
20260507164952 30 0.0 0.0 0.00 0.00 0.00 65 994.2
20260507163939 30 0.0 0.0 0.00 0.00 0.00 65 994.3
20260507163432 31 0.0 0.0 0.00 0.00 0.00 65 994.3
20260507162925 31 0.0 0.0 0.00 0.00 0.00 64 994.5
20260507162416 31 0.0 0.0 0.00 0.00 0.00 64 994.4
20260507161401 31 0.0 0.0 0.00 0.00 0.00 65 994.4
20260507160854 31 0.0 0.0 0.00 0.00 0.00 64 994.5
20260507160342 31 0.0 0.0 0.00 0.00 0.00 64 994.5
20260507155835 31 0.0 0.0 0.00 0.00 0.00 65 994.5
20260507154819 31 0.0 0.0 0.00 0.00 0.00 64 994.6
20260507153759 31 0.0 0.0 0.00 0.00 0.00 64 994.7
20260507153249 31 0.0 0.0 0.00 0.00 0.00 63 994.7
20260507152738 31 0.0 0.0 0.00 0.00 0.00 63 994.7
20260507152230 31 0.0 0.0 0.00 0.00 0.00 64 994.8
20260507151719 31 0.0 0.0 0.00 0.00 0.00 63 994.8
20260507151211 31 0.0 0.0 0.00 0.00 0.00 63 994.9
20260507145649 31 0.0 0.0 0.00 0.00 0.00 63 994.9
20260507145142 31 0.0 0.0 0.00 0.00 0.00 62 994.8
20260507144629 31 0.0 0.0 0.00 0.00 0.00 62 994.8
20260507144123 31 0.0 0.0 0.00 0.00 0.00 62 994.7
20260507143613 31 0.0 0.0 0.00 0.00 0.00 63 994.7
20260507143104 31 0.0 0.0 0.00 0.00 0.00 62 994.7
20260507142046 31 0.0 0.0 0.00 0.00 0.00 61 994.5
20260507141030 31 0.0 0.0 0.00 0.00 0.00 61 994.5
20260507140524 31 0.0 0.0 0.00 0.00 0.00 61 994.4
20260507140016 31 0.0 0.0 0.00 0.00 0.00 61 994.2
20260507135504 31 0.0 0.0 0.00 0.00 0.00 60 994.0
20260507134955 31 0.0 0.0 0.00 0.00 0.00 59 994.0
20260507134448 31 0.0 0.0 0.00 0.00 0.00 60 993.9
20260507133430 31 0.0 0.0 0.00 0.00 0.00 59 993.8
20260507132923 31 0.0 0.0 0.00 0.00 0.00 59 993.8
20260507132414 31 0.0 0.0 0.00 0.00 0.00 58 993.7
20260507131906 31 0.0 0.0 0.00 0.00 0.00 58 993.7
20260507131357 31 0.0 0.0 0.00 0.00 0.00 59 993.6
20260507130846 31 0.0 0.0 0.00 0.00 0.00 61 993.6
20260507125830 31 0.0 0.0 0.00 0.00 0.00 58 993.6
20260507125323 31 0.0 0.0 0.00 0.00 0.00 58 993.6
20260507124815 31 0.0 0.0 0.00 0.00 0.00 58 993.5
20260507124308 31 0.0 0.0 0.00 0.00 0.00 57 993.5
20260507123800 31 0.0 0.0 0.00 0.00 0.00 59 993.4
20260507123250 31 0.0 0.0 0.00 0.00 0.00 59 993.4
20260507122744 31 0.0 0.0 0.00 0.00 0.00 58 993.3
20260507121729 31 0.0 0.0 0.00 0.00 0.00 58 993.1
20260507120712 31 0.0 0.0 0.00 0.00 0.00 59 992.8
20260507120206 31 0.0 0.0 0.00 0.00 0.00 58 992.5
20260507115656 31 0.0 0.0 0.00 0.00 0.00 60 992.3
20260507115150 31 0.0 0.0 0.00 0.00 0.00 60 992.3
20260507114643 31 0.0 0.0 0.00 0.00 0.00 60 992.3
20260507114137 31 0.0 0.0 0.00 0.00 0.00 59 992.3
20260507113630 31 0.0 0.0 0.00 0.00 0.00 60 992.4
20260507112615 31 0.0 0.0 0.00 0.00 0.00 60 992.1
20260507112106 31 0.0 0.0 0.00 0.00 0.00 60 992.1
20260507111559 31 0.0 0.0 0.00 0.00 0.00 61 992.0
20260507111049 31 0.0 0.0 0.00 0.00 0.00 61 991.7
20260507110541 31 0.0 0.0 0.00 0.00 0.00 61 991.7